"TOA5","AWS1","CR1000","7964","CR1000.Std.14","CPU:AWS1_114.CR1","64363","TBL110"
"TIMESTAMP","RECORD","Wind_spd_WVc(1)","Wind_spd_WVc(2)","Air_Temp_Avg","Humidity_Avg","SW_upper_Wm2_Avg","Rain_Tot","Press_Avg","Issui_Tot","Depth_cm","SR50A_Raw","Quality","Ground_Temp_Avg(1)","Ground_Temp_Avg(2)","SW_lower_Wm2_Avg","Albedo_Avg","SWC_per(1)","SWC_per(2)","Period(1)","Period(2)"
"TS","RN","","","","","","","","","","","","","","","","","","",""
"","","WVc","WVc","Avg","Avg","Avg","Tot","Avg","Tot","Smp","Smp","Smp","Avg","Avg","Avg","Avg","Smp","Smp","Smp","Smp"
"2018-06-01 00:00:00",343069,0.042,223.1,8.66,100,0,0,860.3552,0,-27.89,3.405,200,13.68,13.47,0.6406513,0,52.05,59.91,33.8,35.66
"2018-06-01 00:10:00",343070,0.13,186.5,8.65,100,0,0,860.3587,0,318,0,0,13.71,13.47,0.5269263,0,52.05,59.97,33.8,35.67
"2018-06-01 00:20:00",343071,0.327,340.7,8.57,100,0,1.5,860.3355,0,-23.85,3.366,186,13.65,13.47,0.4549004,0,52.38,59.97,33.88,35.67
"2018-06-01 00:30:00",343072,0.619,57.83,8.14,100,0,0.5,860.3602,0,14.56,2.991,268,13.59,13.49,0.1933327,0,53.95,60.44,34.26,35.78
"2018-06-01 00:40:00",343073,0.075,3.648,8.03,100,0,0,860.3658,0,14.44,2.992,274,13.6,13.49,0.4549004,0,54.12,61.52,34.3,36.02
"2018-06-01 00:50:00",343074,0.139,334.7,8.08,100,0,0,860.382,0,-27.87,3.409,196,13.56,13.48,0.6823505,0,54.12,61.88,34.3,36.11
"2018-06-01 01:00:00",343075,0.146,266.8,8.11,100,0,0,860.2269,0,11.91,3.016,453,13.49,13.45,1.122088,0,54.07,62.06,34.29,36.15
"2018-06-01 01:10:00",343076,0.199,293.5,8.2,100,0,0,860.3173,0,15.6,2.979,352,13.43,13.44,1.482217,0,54.01,62.12,34.27,36.16
"2018-06-01 01:20:00",343077,0.298,263.3,8.28,100,0,0,860.4135,0,-24.29,3.373,203,13.42,13.42,1.072807,0,53.95,62.18,34.26,36.17
"2018-06-01 01:30:00",343078,0.077,212.6,8.08,100,0,0,860.4103,0,-24.72,3.378,238,13.36,13.42,0.7998665,0,53.95,62.18,34.26,36.17
"2018-06-01 01:40:00",343079,0.379,242,8.03,100,0,0,860.4135,0,0.845,3.126,236,13.36,13.41,0.879474,0,53.9,62.18,34.25,36.17
"2018-06-01 01:50:00",343080,0.486,301.1,8.17,100,0,0,860.4177,0,-27.39,3.403,199,13.25,13.41,0.7467948,0,53.84,62.18,34.23,36.17
"2018-06-01 02:00:00",343081,0.384,299.8,8.27,100,0,0,860.4187,0,318,0,0,13.26,13.41,0.4700637,0,53.84,62.18,34.23,36.17
"2018-06-01 02:10:00",343082,0.811,304.6,8.32,100,0.1336753,0,860.4927,0,1.461,3.118,235,13.28,13.4,0.8718923,0.546,53.78,62.18,34.22,36.17
"2018-06-01 02:20:00",343083,1.196,281.6,8.32,100,0.5229064,0,860.6571,0,318,0,0,13.15,13.4,0.9098007,1.843,53.78,62.18,34.22,36.17
"2018-06-01 02:30:00",343084,0.752,326.6,8.27,100,0.7076929,0,860.6791,0,3.487,3.099,517,13.17,13.38,0.9098007,1.446,53.73,62.12,34.21,36.16
"2018-06-01 02:40:00",343085,1.301,309.7,8.23,100,0.8649579,0,860.7543,0,318,0,0,13.2,13.34,0.9098007,1.109,53.73,62.12,34.21,36.16
"2018-06-01 02:50:00",343086,1.022,300.7,8.11,100,0.5700858,0,860.8341,0,318,0,0,13.16,13.37,0.9098007,1.709,53.67,62.06,34.19,36.15
"2018-06-01 03:00:00",343087,1.013,275.3,8.03,100,0.5111115,0,860.886,0,-3.493,3.169,220,13.09,13.37,0.8756832,1.631,53.61,62.06,34.18,36.15
"2018-06-01 03:10:00",343088,0.834,311.5,7.955,100,0.5386328,0,860.9073,0,-0.478,3.14,254,13.09,13.39,0.7202589,0.755,53.56,62,34.17,36.13
"2018-06-01 03:20:00",343089,1.271,307,7.818,100,0.4914533,0,860.9205,0,-23.65,3.369,206,13.12,13.41,0.8415657,1.639,53.56,62,34.17,36.13
"2018-06-01 03:30:00",343090,1.092,288.6,7.685,100,0.4364106,0,860.9316,0,6.235,3.075,388,13.11,13.41,0.5307171,1.162,53.5,61.94,34.15,36.12
"2018-06-01 03:40:00",343091,0.689,297,7.63,100,0.2752139,0,860.9231,0,-33.2,3.464,231,12.99,13.41,0.7467948,1.061,53.5,61.94,34.15,36.12
"2018-06-01 03:50:00",343092,0.802,314.3,7.6,100,0.1808548,0,860.9823,0,2.991,3.107,274,12.99,13.41,0.5989522,0.627,53.5,61.94,34.15,36.12
"2018-06-01 04:00:00",343093,0.577,286.3,7.563,100,0.4049576,0,861.1119,0,-37.26,3.504,350,13.02,13.39,0.4890179,1.012,53.45,61.88,34.14,36.11
"2018-06-01 04:10:00",343094,0.861,287.9,7.517,100,0.2594874,0,861.2133,0,1.848,3.119,261,13.04,13.3,0.4549004,0.579,53.45,61.52,34.14,36.02
"2018-06-01 04:20:00",343095,1.023,302,7.497,100,0.4442738,0,861.4093,0,3.518,3.103,297,13.03,13.25,0.4549004,0.932,53.45,61.52,34.14,36.02
"2018-06-01 04:30:00",343096,0.309,302.1,7.493,100,0.5464962,0,861.4304,0,-3.65,3.173,192,12.91,13.25,0.462482,0.903,53.39,61.46,34.13,36.01
"2018-06-01 04:40:00",343097,0.416,282.5,7.44,100,1.52154,0,861.4325,0,2.35,3.115,270,12.89,13.27,0.5875796,0.412,53.39,61.4,34.13,36
"2018-06-01 04:50:00",343098,0.644,275.3,7.321,100,2.991968,0,861.5518,0,3.156,3.108,282,12.92,13.28,0.788494,0.268,53.39,61.34,34.13,35.98
"2018-06-01 05:00:00",343099,0.498,274.2,7.25,100,5.177953,0,861.6816,0,-3.198,3.17,205,12.93,13.29,1.023526,0.2,53.33,61.28,34.11,35.97
"2018-06-01 05:10:00",343100,0.597,298.2,7.232,100,8.747869,0,861.7397,0,2.346,3.116,256,12.94,13.29,1.432936,0.166,53.33,61.22,34.11,35.96
"2018-06-01 05:20:00",343101,0.758,279.6,7.211,100,15.49847,0,861.8538,0,6.071,3.079,290,12.92,13.29,2.229012,0.143,53.11,61.22,34.06,35.96
"2018-06-01 05:30:00",343102,1.049,277.3,7.203,100,22.27267,0,861.8475,0,-1.78,3.156,198,12.87,13.29,3.370054,0.15,52.72,61.16,33.96,35.94
"2018-06-01 05:40:00",343103,0.645,272,7.247,100,30.01404,0,861.8307,0,-41.77,3.551,331,12.86,13.3,4.385997,0.146,52.66,61.1,33.95,35.93
"2018-06-01 05:50:00",343104,0.819,252.8,7.314,100,46.20055,0,861.9339,0,5.873,3.08,301,12.87,13.32,6.910695,0.15,52.66,61.1,33.95,35.93
"2018-06-01 06:00:00",343105,1.202,286.5,7.301,100,66.79834,0,861.9824,0,1.288,3.125,243,12.83,13.31,9.613561,0.142,52.66,61.1,33.95,35.93
"2018-06-01 06:10:00",343106,0.508,249.6,7.538,100,139.7851,0,862.1635,0,6.772,3.069,246,12.83,13.26,21.096,0.151,52.6,61.04,33.94,35.92
"2018-06-01 06:20:00",343107,0.103,118.5,8.06,100,150.8604,0,862.1888,0,8.87,3.046,248,12.82,13.25,22.28633,0.148,52.6,61.04,33.94,35.92
"2018-06-01 06:30:00",343108,0.151,354.8,8.43,100,155.3268,0,862.2319,0,6.107,3.072,320,12.81,13.26,23.00659,0.145,52.6,60.98,33.94,35.9
"2018-06-01 06:40:00",343109,0.223,292,8.32,100,130.2194,0,862.4127,0,7.392,3.061,272,12.81,13.25,17.98752,0.137,52.49,60.98,33.91,35.9
"2018-06-01 06:50:00",343110,0.244,37.57,8.21,100,129.2915,0,862.3978,0,5.72,3.077,243,12.83,13.2,17.77902,0.137,52.49,60.86,33.91,35.88
"2018-06-01 07:00:00",343111,0.578,356.6,7.922,100,89.40913,0,862.4069,0,7.917,3.057,315,12.84,13.17,12.07002,0.133,52.49,60.86,33.91,35.88
"2018-06-01 07:10:00",343112,0.428,261.8,7.863,100,75.70348,0,862.5877,0,8.04,3.056,349,12.8,13.16,10.26938,0.134,52.49,60.86,33.91,35.88
"2018-06-01 07:20:00",343113,0.537,224.7,7.865,100,72.64074,0,862.7103,0,7.439,3.061,264,12.77,13.19,9.833429,0.134,52.44,60.74,33.89,35.85
"2018-06-01 07:30:00",343114,0.492,219.7,7.891,100,96.58827,0,862.8362,0,5.178,3.084,327,12.76,13.2,14.18152,0.145,52.44,60.74,33.89,35.85
"2018-06-01 07:40:00",343115,0.373,197.5,8.22,100,139.4273,0,862.8614,0,9.98,3.035,317,12.77,13.2,20.36816,0.146,52.44,60.68,33.89,35.83
"2018-06-01 07:50:00",343116,0.442,168.6,8.21,100,129.3427,0,862.8741,0,-1.234,3.146,215,12.8,13.2,18.98072,0.147,52.44,60.62,33.89,35.82
"2018-06-01 08:00:00",343117,0.544,223.5,8.09,99.3,99.2893,0,862.9667,0,6.502,3.07,281,12.8,13.2,14.78805,0.149,52.38,60.62,33.88,35.82
"2018-06-01 08:10:00",343118,0.453,232.9,8.26,100,172.2446,0,863.11,0,6.591,3.067,258,12.83,13.2,26.6837,0.155,52.38,60.56,33.88,35.81
"2018-06-01 08:20:00",343119,0.309,236.8,8.53,99.1,168.1989,0,863.11,0,4.333,3.089,291,12.81,13.2,25.56161,0.152,52.38,60.56,33.88,35.81
"2018-06-01 08:30:00",343120,0.336,233,8.66,99.6,161.2989,0,863.1563,0,7.541,3.056,320,12.81,13.2,24.06044,0.149,52.32,60.56,33.87,35.81
"2018-06-01 08:40:00",343121,0.218,305.3,8.87,100,179.6124,0,863.35,0,-2.286,3.152,198,12.8,13.2,26.8088,0.149,52.38,60.5,33.88,35.79
"2018-06-01 08:50:00",343122,0.384,37.28,8.84,100,154.4733,0,863.3627,0,5.207,3.079,274,12.8,13.19,23.02929,0.149,52.38,60.44,33.88,35.78
"2018-06-01 09:00:00",343123,0.285,334,8.61,100,153.5273,0,863.4153,0,5.418,3.077,418,12.82,13.14,23.81299,0.155,52.32,60.44,33.87,35.78
"2018-06-01 09:10:00",343124,0.177,128.6,8.93,100,160.6575,0,863.5248,0,318,0,0,12.8,13.1,23.72124,0.147,52.32,60.44,33.87,35.78
"2018-06-01 09:20:00",343125,0.167,119.4,9.03,100,70.69927,0,863.6154,0,-1.705,3.146,208,12.79,13.1,10.2039,0.144,52.27,60.38,33.85,35.77
"2018-06-01 09:30:00",343126,0.214,42.33,8.9,100,98.34159,0,863.6365,0,-2.639,3.156,192,12.78,13.1,15.21396,0.155,52.27,60.38,33.85,35.77
"2018-06-01 09:40:00",343127,0.113,288.4,8.82,100,120.6714,0,863.8219,0,7.581,3.055,383,12.79,13.06,18.80235,0.155,52.27,60.38,33.85,35.77
"2018-06-01 09:50:00",343128,0.412,315.4,8.98,100,318.7018,0,863.8682,0,6.753,3.062,298,12.82,13.04,50.34129,0.158,52.27,60.38,33.85,35.77
"2018-06-01 10:00:00",343129,0.56,304,9.32,98.1,521.5617,0,863.8724,0,8.67,3.039,332,12.82,13.03,82.48894,0.157,52.21,60.38,33.84,35.77
"2018-06-01 10:10:00",343130,0.425,329.5,9.89,87.4,414.6546,0,863.8788,0,3.22,3.094,326,12.77,13.03,64.08763,0.155,52.27,60.38,33.85,35.77
"2018-06-01 10:20:00",343131,0.32,298.6,10.15,88.2,647.9218,0,863.8682,0,318,0,0,12.79,13.01,104.0246,0.16,52.27,60.33,33.85,35.75
"2018-06-01 10:30:00",343132,0.593,341,10.5,85.1,458.608,0,863.8682,0,13.26,2.991,257,12.8,12.95,72.97187,0.159,52.27,60.33,33.85,35.75
"2018-06-01 10:40:00",343133,0.58,288.9,10.11,87,377.7679,0,863.8682,0,-26.29,3.381,184,12.84,13,61.45134,0.162,52.21,60.33,33.84,35.75
"2018-06-01 10:50:00",343134,0.325,301.4,10.62,85.6,389.3893,0,863.8746,0,14.31,2.98,442,12.85,12.99,60.81084,0.152,52.21,60.27,33.84,35.74
"2018-06-01 11:00:00",343135,0.165,242.7,10.35,88.2,246.8299,0,863.942,0,6.003,3.062,435,12.87,13.02,38.8163,0.157,52.16,60.27,33.83,35.74
"2018-06-01 11:10:00",343136,0.284,278.6,10.33,86.7,238.199,0,864.0536,0,-33.93,3.455,238,12.86,13.02,37.70218,0.158,52.16,60.27,33.83,35.74
"2018-06-01 11:20:00",343137,0.284,273.1,10.54,84.7,350.6877,0,864.0198,0,7.239,3.048,270,12.92,13,56.85833,0.162,52.16,60.27,33.83,35.74
"2018-06-01 11:30:00",343138,0.204,286.9,10.73,85,232.7477,0,863.9588,0,12.74,2.995,372,12.97,12.96,37.54681,0.161,52.16,60.21,33.83,35.73
"2018-06-01 11:40:00",343139,0.232,251.4,10.91,82.7,434.395,0,864.121,0,-27.89,3.39,197,12.96,12.95,71.22828,0.164,52.16,60.21,33.83,35.73
"2018-06-01 11:50:00",343140,0.215,336,11.4,79.58,487.2927,0,864.102,0,13.76,2.979,326,13.02,12.97,82.32407,0.165,52.1,60.21,33.81,35.73
"2018-06-01 12:00:00",343141,0.463,308,12.62,73.79,941.5356,0,864.0135,0,-36.52,3.464,251,13.05,12.96,157.0198,0.163,52.16,60.15,33.83,35.71
"2018-06-01 12:10:00",343142,0.422,66.58,12.6,72.44,764.2128,0,864.1041,0,-0.79,3.113,232,13.04,12.94,128.2079,0.162,52.16,60.15,33.83,35.71
"2018-06-01 12:20:00",343143,0.327,287.8,12.78,76.05,280.4535,0,864.0822,0,-26.33,3.368,210,13.11,12.94,41.26435,0.146,52.1,60.15,33.81,35.71
"2018-06-01 12:30:00",343144,0.253,339.6,12.77,73.01,907.7043,0,864.0882,0,-0.518,3.108,228,13.14,12.96,154.1871,0.166,52.1,60.15,33.81,35.71
"2018-06-01 12:40:00",343145,0.592,37.36,13.79,68.61,654.819,0,864.0707,0,-0.829,3.112,211,13.17,12.93,106.6475,0.155,52.05,60.15,33.8,35.71
"2018-06-01 12:50:00",343146,0.417,304.4,13.88,70.21,1008.49,0,863.9445,0,-0.97,3.112,243,13.21,12.92,171.7768,0.165,52.05,60.09,33.8,35.7
"2018-06-01 13:00:00",343147,0.651,347.7,14.11,66.73,734.5197,0,863.8626,0,-26.33,3.361,304,13.24,12.92,120.8536,0.149,52.05,60.09,33.8,35.7
"2018-06-01 13:10:00",343148,0.349,351.1,13.39,71.51,558.1848,0,863.9365,0,1.248,3.09,246,13.3,12.91,92.54179,0.156,51.99,60.09,33.79,35.7
"2018-06-01 13:20:00",343149,0.457,253.5,13.93,68.99,686.0305,0,863.9333,0,3.519,3.066,338,13.32,12.9,112.8957,0.158,51.99,60.09,33.79,35.7
"2018-06-01 13:30:00",343150,0.401,350.8,14.41,65.67,508.7165,0,864.0257,0,2.123,3.081,290,13.38,12.9,81.491,0.148,51.99,60.03,33.79,35.69
"2018-06-01 13:40:00",343151,0.376,304.4,14.41,66.19,948.3104,0,864.0565,0,7.419,3.024,394,13.45,12.91,164.9482,0.171,51.99,60.09,33.79,35.7
"2018-06-01 13:50:00",343152,0.464,322.6,15.13,62.48,1035.709,0,863.8546,0,-0.961,3.103,237,13.55,12.92,180.9076,0.174,51.94,60.03,33.77,35.69
"2018-06-01 14:00:00",343153,0.513,329.2,15.29,63.09,659.0833,0,863.7926,0,318,0,0,13.63,12.92,105.7154,0.152,51.99,60.03,33.79,35.69
"2018-06-01 14:10:00",343154,0.448,6.787,14.62,65.76,538.7182,0,863.7933,0,-26.03,3.35,260,13.62,12.91,86.765,0.149,51.94,60.03,33.77,35.69
"2018-06-01 14:20:00",343155,0.422,305.7,15.22,61.29,651.3915,0,863.7946,0,13.63,2.964,271,13.7,12.91,103.9683,0.15,51.88,59.97,33.76,35.67
"2018-06-01 14:30:00",343156,0.458,125.6,14.97,63.4,575.3498,0,863.7832,0,13.89,2.959,247,13.81,12.92,89.62086,0.151,51.94,59.97,33.77,35.67
"2018-06-01 14:40:00",343157,0.471,287.7,15.37,62.6,797.1617,0,863.8289,0,-28.48,3.371,240,13.88,12.92,122.1142,0.151,51.88,60.03,33.76,35.69
"2018-06-01 14:50:00",343158,0.312,113.9,15.23,63.27,479.534,0,863.8245,0,13.63,2.962,297,13.98,12.92,63.63085,0.13,51.88,60.03,33.76,35.69
"2018-06-01 15:00:00",343159,0.38,205.7,15.46,62.14,895.2813,0,863.8154,0,-0.298,3.094,211,13.99,12.88,102.6341,0.115,51.82,60.03,33.75,35.69
"2018-06-01 15:10:00",343160,0.437,261.5,15.99,61.67,853.2224,0,863.7775,0,12.23,2.974,282,14.06,12.84,73.438,0.085,51.82,59.97,33.75,35.67
"2018-06-01 15:20:00",343161,0.526,242.8,15.1,62.21,490.0436,0,863.8018,0,-1.294,3.11,206,14.14,12.84,34.49454,0.079,51.82,59.97,33.75,35.67
"2018-06-01 15:30:00",343162,0.364,244.1,14.64,65,205.487,0,863.8052,0,318,0,0,14.23,12.83,34.28959,0.184,51.82,59.97,33.75,35.67
"2018-06-01 15:40:00",343163,0.401,271.1,14.56,64.34,127.5846,0,863.8304,0,14.41,2.959,293,14.28,12.84,28.01136,0.22,51.82,59.97,33.75,35.67
"2018-06-01 15:50:00",343164,0.402,63.77,14.6,65.8,105.0236,0,863.8898,0,13.91,2.961,298,14.34,12.89,21.88431,0.21,51.77,59.97,33.73,35.67
"2018-06-01 16:00:00",343165,0.319,229.1,14.43,68.97,94.19675,0,864.0643,0,2.798,3.071,268,14.43,12.93,18.27689,0.195,51.77,59.91,33.73,35.66
"2018-06-01 16:10:00",343166,0.26,206.9,14.58,68.36,103.7555,0,864.1199,0,-26.97,3.362,215,14.51,12.95,19.36454,0.187,51.77,59.91,33.73,35.66
"2018-06-01 16:20:00",343167,0.398,215.6,14.33,68.79,103.2957,0,864.1249,0,318,0,0,14.59,12.95,17.84873,0.172,51.71,59.91,33.72,35.66
"2018-06-01 16:30:00",343168,0.306,252.2,14.1,69.23,68.42229,0,864.2893,0,5.945,3.044,250,14.62,12.94,10.92904,0.16,51.77,59.91,33.73,35.66
"2018-06-01 16:40:00",343169,0.21,251.1,13.76,71.8,59.47305,0,864.3441,0,-28.65,3.383,187,14.73,12.94,8.670469,0.146,51.71,59.91,33.72,35.66
"2018-06-01 16:50:00",343170,0.297,247.4,13.59,72.17,56.78867,0,864.3799,0,13.56,2.972,353,14.73,12.94,8.151302,0.144,51.66,59.91,33.7,35.66
"2018-06-01 17:00:00",343171,0.351,215,13.29,74.04,53.84489,0,864.4515,0,13.13,2.978,340,14.76,12.96,7.344131,0.136,51.71,59.85,33.72,35.64
"2018-06-01 17:10:00",343172,0.217,189.5,13.06,76.1,51.76183,0,864.5822,0,13.94,2.971,220,14.82,12.98,6.77191,0.131,51.71,59.85,33.72,35.64
"2018-06-01 17:20:00",343173,0.325,214.1,12.98,76.05,50.64563,0,864.639,0,13.38,2.976,256,14.85,12.98,6.525589,0.129,51.66,59.85,33.7,35.64
"2018-06-01 17:30:00",343174,0.239,206,13.05,76.7,53.66409,0,864.8496,0,12.75,2.983,272,14.9,12.98,7.27213,0.135,51.66,59.85,33.7,35.64
"2018-06-01 17:40:00",343175,0.234,190.3,12.76,79.95,46.18476,0,864.8791,0,14.03,2.971,272,14.92,13.01,5.847261,0.127,51.6,59.85,33.69,35.64
"2018-06-01 17:50:00",343176,0.161,195.3,12.71,80.5,46.69177,0,864.8834,0,13.02,2.982,340,14.9,13.05,6.180741,0.132,51.6,59.85,33.69,35.64
"2018-06-01 18:00:00",343177,0.099,173.6,12.55,81.8,45.86641,0,865.0371,0,13.55,2.977,247,14.9,13.07,6.169373,0.134,51.6,59.79,33.69,35.63
"2018-06-01 18:10:00",343178,0.098,175.9,12.39,83.2,29.96841,0,865.1318,0,13.69,2.977,337,14.91,13.13,3.766804,0.125,51.6,59.79,33.69,35.63
"2018-06-01 18:20:00",343179,0.104,185.9,12.05,87.2,22.68586,0,865.1951,0,3.577,3.078,228,14.93,13.15,2.664079,0.118,51.6,59.79,33.69,35.63
"2018-06-01 18:30:00",343180,0.015,190.6,11.83,90,19.93914,0,865.3825,0,4.206,3.073,237,14.94,13.16,2.690684,0.135,51.55,59.79,33.68,35.63
"2018-06-01 18:40:00",343181,0.007,167.5,11.62,93.6,12.93934,0,865.3888,0,12.89,2.989,404,14.95,13.17,1.762252,0.136,51.6,59.79,33.69,35.63
"2018-06-01 18:50:00",343182,0,0,11.4,94.4,6.383693,0,865.5868,0,11.87,3,281,14.94,13.18,0.8451872,0.13,51.6,59.79,33.69,35.63
"2018-06-01 19:00:00",343183,0,0,11.01,96.8,1.210754,0,865.6374,0,12.85,2.992,269,14.94,13.2,0.05685364,0.021,51.55,59.73,33.68,35.62
"2018-06-01 19:10:00",343184,0,0,10.75,97.8,0,0,865.7743,0,13.35,2.989,285,14.94,13.21,0,0,51.6,59.73,33.69,35.62
"2018-06-01 19:20:00",343185,0,0,10.5,99.5,0,0,865.8901,0,-30.88,3.425,234,14.95,13.23,0,0,51.55,59.73,33.68,35.62
"2018-06-01 19:30:00",343186,0.11,175.4,10.19,100,0,0,865.8901,0,-26.78,3.386,208,14.97,13.31,0,0,51.55,59.73,33.68,35.62
"2018-06-01 19:40:00",343187,0.077,174,9.94,100,0,0,865.9133,0,-26.62,3.386,213,14.94,13.37,0,0,51.55,59.73,33.68,35.62
"2018-06-01 19:50:00",343188,0.203,178.4,9.7,100,0,0,865.9491,0,-26.74,3.388,201,14.92,13.35,0,0,51.49,59.73,33.66,35.62
"2018-06-01 20:00:00",343189,0.085,185,9.72,100,0,0,866.1239,0,2.185,3.103,233,14.89,13.33,0.3411753,0,51.55,59.73,33.68,35.62
"2018-06-01 20:10:00",343190,0.026,286.9,9.59,100,0,0,866.217,0,1.468,3.111,229,14.86,13.33,0.2047052,0,51.49,59.73,33.66,35.62
"2018-06-01 20:20:00",343191,0,0,9.67,100,0,0,866.409,0,-29.26,3.413,218,14.81,13.35,0.5382987,0,51.49,59.67,33.66,35.6
"2018-06-01 20:30:00",343192,0,0,9.51,100,0,0,866.4244,0,13.92,2.99,326,14.81,13.39,0.4549004,0,51.55,59.73,33.68,35.62
"2018-06-01 20:40:00",343193,0,0,9.19,100,0,0,866.5479,0,5.239,3.077,322,14.78,13.4,0.4549004,0,51.49,59.73,33.66,35.62
"2018-06-01 20:50:00",343194,0,0,9.09,100,0,0,866.6833,0,13.02,3,307,14.71,13.45,0.6747689,0,51.55,59.73,33.68,35.62
"2018-06-01 21:00:00",343195,0,0,9.1,100,0,0,866.8916,0,5.897,3.071,501,14.73,13.46,0.5117629,0,51.49,59.73,33.66,35.62
"2018-06-01 21:10:00",343196,0,0,8.92,100,0,0,866.9576,0,-1.318,3.142,203,14.63,13.45,0.4473187,0,51.49,59.67,33.66,35.6
"2018-06-01 21:20:00",343197,0.053,130.4,8.95,100,0,0,866.9619,0,-0.559,3.135,217,14.63,13.43,0.4549004,0,51.49,59.67,33.66,35.6
"2018-06-01 21:30:00",343198,0.005,142.2,8.98,100,0,0,866.9752,0,-26.98,3.394,206,14.63,13.42,0.5041813,0,51.49,59.67,33.66,35.6
"2018-06-01 21:40:00",343199,0.018,146.8,9.12,100,0,0,866.9773,0,-1.774,3.146,208,14.51,13.42,0.6558147,0,51.49,59.67,33.66,35.6
"2018-06-01 21:50:00",343200,0.288,188.1,8.89,100,0,0,867.0012,0,-2.969,3.158,211,14.57,13.42,0.4359462,0,51.49,59.67,33.66,35.6
"2018-06-01 22:00:00",343201,0.121,195.4,8.99,100,0,0,867.1271,0,-2.794,3.157,226,14.52,13.43,0.7619581,0,51.44,59.67,33.65,35.6
"2018-06-01 22:10:00",343202,0.301,193.6,8.76,100,0,0,867.2153,0,-2.443,3.155,204,14.46,13.47,0.4549004,0,51.49,59.61,33.66,35.59
"2018-06-01 22:20:00",343203,0.124,193.6,8.57,100,0,0,867.1789,0,-2.215,3.153,220,14.48,13.5,0.4359462,0,51.49,59.61,33.66,35.59
"2018-06-01 22:30:00",343204,0.054,193.3,8.48,100,0,0,867.1246,0,0.852,3.124,258,14.38,13.51,0.4700637,0,51.44,59.61,33.65,35.59
"2018-06-01 22:40:00",343205,0.398,189.3,8.17,100,0,0,866.9925,0,0.235,3.132,230,14.4,13.54,0.3373844,0,51.44,59.61,33.65,35.59
"2018-06-01 22:50:00",343206,0.192,187.2,8.31,100,0,0,866.9927,0,0.243,3.13,213,14.34,13.57,0.6747689,0,51.49,59.61,33.66,35.59
"2018-06-01 23:00:00",343207,0.044,118.7,8.88,100,0,0,866.9927,0,0.515,3.123,242,14.29,13.58,1.626269,0,51.49,59.61,33.66,35.59
"2018-06-01 23:10:00",343208,0.099,156.5,9,100,0,0,866.9969,0,0.003,3.129,218,14.32,13.58,1.080388,0,51.49,59.56,33.66,35.58
"2018-06-01 23:20:00",343209,0.242,184.4,8.88,100,0,0,867.0053,0,-30.45,3.43,198,14.22,13.57,0.8491474,0,51.49,59.56,33.66,35.58
"2018-06-01 23:30:00",343210,0.31,189.7,8.85,100,0,0,866.9948,0,12.42,3.008,450,14.22,13.55,0.579998,0,51.44,59.56,33.65,35.58
"2018-06-01 23:40:00",343211,0.351,190.1,9.11,100,0,0,867.0032,0,-28.22,3.403,196,14.19,13.55,0.7960756,0,51.44,59.56,33.65,35.58
"2018-06-01 23:50:00",343212,0.074,185.4,9.96,99.1,0,0,867.0685,0,-29.61,3.413,200,14.12,13.55,1.228231,0,51.44,59.56,33.65,35.58
